[[{"header":{"parameterUnit":"m.s-1","parameterCategory":1,"la1":30.2991,"la2":30.254,"lo1":-89.0895,"lo2":-89.0444,"dy":0.0017,"dx":0.0017,"nx":28,"ny":28,"refTime":"2023-10-08T21:00:00:Z","depth":0,"parameterNumber":2,"parameterNumberName":"U-component_of_WINDS"},"data":[0,0,0,0,0,0,0,0,0,0,0,0,0,0,0,0,0,0,0,0,0,0,0,0,0,0,0,0,0,0,0,0,0,0,0,0,0,0,0,0,0,0,0,0,0,0,0,0,0,0,0,0,0,0,0,0,0,0,0.8489,0.8489,0,0.8449,0.8449,0.8448,0.8399,0.8399,0.8398,0.8397,0.8356,0.8355,0.8355,0,0,0,0,0,0,0,0,0,0,0,0,0,0.8526,0.8525,0.849,0.8489,0.8488,0.8449,0.8449,0.8448,0.84,0.8399,0.8398,0.8397,0.8356,0.8356,0.8355,0,0,0,0,0,0,0,0,0,0,0,0,0,0.85,0.8525,0.849,0.846,0.8456,0.8449,0.8449,0.8448,0.84,0.8399,0.8397,0.8396,0.8356,0.8356,0.8355,0.8374,0,0,0.8353,0.8353,0,0,0,0,0,0,0,0,0.8502,0.8499,0.8464,0.8462,0.8458,0.8428,0.8446,0.8423,0.84,0.8421,0.8397,0.8396,0.8381,0.8378,0.8373,0.8372,0.837,0.8353,0.8353,0.8352,0.8352,0,0,0,0,0,0,0,0.8504,0.85,0.8473,0.8464,0.846,0.8449,0.8444,0.8442,0.8408,0.8419,0.8416,0.8412,0.8379,0.8374,0.8372,0.837,0.8353,0.8353,0.8352,0.8352,0.8385,0.8386,0,0,0,0,0,0,0.851,0.8502,0.8475,0.8472,0.8478,0.8449,0.8443,0.8439,0.8408,0.8402,0.8413,0.8409,0.8375,0.8372,0.837,0.8391,0.8353,0.8352,0.8352,0.8383,0.8385,0.8386,0,0,0,0,0,0,0.8511,0.8508,0.8476,0.8486,0.8481,0.8449,0.8445,0.8439,0.8433,0.8403,0.8397,0.8413,0.8374,0.8371,0.8374,0.8389,0.8352,0.8351,0.8382,0.8384,0.8386,0.8434,0,0,0,0,0,0,0.8512,0.8508,0.8515,0.8487,0.8481,0.8481,0.8446,0.8439,0.8433,0.8428,0.8402,0.8396,0.8373,0.8375,0.8373,0.8388,0.8351,0.838,0.8383,0.8385,0.8431,0.8437,0.8443,0,0,0,0,0,0.8513,0.853,0.8515,0.8512,0.8488,0.8481,0.8478,0.8451,0.8434,0.8441,0.8421,0.8397,0.8388,0.8376,0.8373,0.8388,0.8379,0.8382,0.8385,0.8428,0.8436,0.8443,0,0,0,0,0,0,0.856,0.8525,0.8509,0.8517,0.8503,0.8473,0.848,0.846,0.845,0.8446,0.8413,0.8408,0.8415,0.8402,0.8389,0.8406,0.838,0.8383,0.8414,0.8421,0.8427,0.843,0.835,0,0,0,0,0,0.8571,0.8568,0.8538,0.8548,0.8541,0.8513,0.8508,0.8489,0.8473,0.8467,0.8447,0.8433,0.8427,0.8423,0.8416,0.8429,0.8423,0.8438,0.8444,0.8449,0.8451,0.8459,0.8466,0.8395,0.8395,0.8395,0,0,0.8593,0.8574,0.8574,0.8557,0.8543,0.8542,0.8508,0.8507,0.8505,0.8466,0.8468,0.8454,0.8436,0.8444,0.8447,0.8433,0.847,0.8453,0.8457,0.8456,0.8463,0.8469,0.8475,0.8397,0.8397,0.8397,0,0,0.8634,0.8619,0.8626,0.8614,0.8595,0.8576,0.8578,0.8552,0.8541,0.8543,0.8514,0.8512,0.8502,0.8491,0.8484,0.8523,0.8501,0.8522,0.8552,0.856,0.8566,0.857,0.8585,0.8591,0.8524,0.8524,0.8524,0,0.8665,0.8661,0.8632,0.8634,0.8627,0.8593,0.86,0.859,0.8569,0.8566,0.8551,0.8539,0.8524,0.8531,0.854,0.8536,0.8537,0.8524,0.8567,0.8572,0.8576,0.859,0.8595,0.8527,0.8527,0.8526,0.8526,0,0.87,0.8698,0.8706,0.8687,0.8682,0.8686,0.866,0.8658,0.8639,0.8622,0.8625,0.8607,0.8596,0.8596,0.8578,0.86,0.8593,0.8573,0.8547,0.8586,0.8598,0.8603,0.8531,0.853,0.8529,0.8528,0,0,0.8766,0.8734,0.8738,0.873,0.8707,0.8705,0.8709,0.8699,0.8698,0.8686,0.8688,0.8682,0.8664,0.8657,0.8637,0.8644,0.8678,0.8624,0.8623,0.8635,0.8703,0.8718,0.8724,0.8664,0.8664,0.8665,0.8705,0,0.8803,0.8807,0.8783,0.8794,0.8792,0.8761,0.8764,0.8751,0.8736,0.8733,0.8717,0.8713,0.8689,0.8685,0.869,0.8673,0.8691,0.8669,0.8666,0.8667,0.8672,0.8731,0.8746,0.8784,0.8709,0.871,0.8711,0,0.8846,0.8837,0.8848,0.8826,0.8825,0.8828,0.8818,0.8815,0.8801,0.8789,0.8782,0.876,0.8763,0.8739,0.8743,0.8729,0.8727,0.8719,0.8719,0.8718,0.8691,0.8731,0.8796,0.8802,0.8718,0.8717,0.8717,0,0.8894,0.8885,0.889,0.8885,0.886,0.8863,0.8853,0.8837,0.8833,0.8825,0.8822,0.8814,0.8809,0.8804,0.8781,0.8765,0.8789,0.8762,0.878,0.8781,0.8786,0.8786,0.8851,0.8785,0.8785,0.8784,0.8784,0,0.8937,0.8945,0.8912,0.8916,0.8925,0.8897,0.8907,0.8894,0.888,0.8881,0.8854,0.8856,0.8825,0.8824,0.8806,0.8814,0.8812,0.8803,0.8798,0.8805,0.8807,0.8803,0.88,0.8786,0.8786,0.8785,0.8785,0,0.8992,0.897,0.8975,0.8951,0.8946,0.8954,0.8934,0.8937,0.8921,0.8923,0.8922,0.8897,0.8894,0.8871,0.8863,0.8851,0.8865,0.8855,0.887,0.8867,0.8887,0.8885,0.8952,0.896,0.8888,0.8889,0.8889,0,0.9021,0.9027,0.9005,0.9004,0.8995,0.8994,0.899,0.8964,0.8962,0.8947,0.8952,0.8947,0.8942,0.8939,0.8921,0.8915,0.8905,0.8929,0.8904,0.8912,0.8906,0.8906,0.8907,0.8934,0.8935,0.8936,0.8936,0,0.9075,0.9065,0.906,0.9053,0.905,0.9043,0.9034,0.9035,0.9006,0.9005,0.9002,0.8999,0.8991,0.8987,0.8979,0.8969,0.8948,0.8945,0.8948,0.8956,0.8965,0.8961,0.8885,0.8943,0.8942,0.8942,0.8941,0.8941,0.9119,0.9123,0.9109,0.9105,0.9096,0.9089,0.9092,0.9077,0.9074,0.9066,0.9051,0.9051,0.9038,0.9025,0.9017,0.9017,0.9005,0.901,0.9012,0.9013,0.9018,0.8965,0.9015,0.9015,0.9015,0.9015,0.9014,0,0.9172,0.9162,0.9159,0.9148,0.9146,0.9128,0.9118,0.9117,0.9118,0.9107,0.9103,0.9101,0.9098,0.908,0.9075,0.9079,0.9069,0.9078,0.9078,0.9076,0.9029,0.9026,0.9086,0.9086,0.9086,0.9086,0.9086,0.9086,0.9199,0.9206,0.9194,0.9197,0.9187,0.9187,0.9183,0.9177,0.9169,0.9168,0.9165,0.9153,0.9141,0.9135,0.9131,0.9126,0.9126,0.9138,0.913,0.9086,0.9079,0.9073,0.907,0.9138,0.9139,0.9178,0.9178,0.9178]},{"header":{"parameterUnit":"m.s-1","parameterCategory":1,"la1":30.2991,"la2":30.254,"lo1":-89.0895,"lo2":-89.0444,"dy":0.0017,"dx":0.0017,"nx":28,"ny":28,"refTime":"2023-10-08T21:00:00:Z","depth":0,"parameterNumber":3,"parameterNumberName":"V-component_of_WINDS"},"data":[0,0,0,0,0,0,0,0,0,0,0,0,0,0,0,0,0,0,0,0,0,0,0,0,0,0,0,0,0,0,0,0,0,0,0,0,0,0,0,0,0,0,0,0,0,0,0,0,0,0,0,0,0,0,0,0,0,0,-3.8157,-3.8158,0,-3.829,-3.8291,-3.8293,-3.8306,-3.8305,-3.8304,-3.8302,-3.8434,-3.8438,-3.8443,0,0,0,0,0,0,0,0,0,0,0,0,0,-3.791,-3.7914,-3.8157,-3.8158,-3.816,-3.829,-3.8291,-3.8293,-3.8306,-3.8305,-3.8303,-3.8302,-3.8432,-3.8438,-3.8443,0,0,0,0,0,0,0,0,0,0,0,0,0,-3.8027,-3.7916,-3.8156,-3.8182,-3.8186,-3.8289,-3.8291,-3.8294,-3.8307,-3.8305,-3.8303,-3.8301,-3.843,-3.8437,-3.8444,-3.8529,0,0,-3.8466,-3.8469,0,0,0,0,0,0,0,0,-3.802,-3.8036,-3.8177,-3.8181,-3.8185,-3.8279,-3.8252,-3.8372,-3.8307,-3.8261,-3.8302,-3.83,-3.8384,-3.8394,-3.8424,-3.8535,-3.8541,-3.8467,-3.8471,-3.8474,-3.8476,0,0,0,0,0,0,0,-3.8012,-3.803,-3.8209,-3.8179,-3.8184,-3.8186,-3.82,-3.8275,-3.8332,-3.8265,-3.8266,-3.8282,-3.8385,-3.8417,-3.8427,-3.8543,-3.8466,-3.8473,-3.8477,-3.848,-3.8729,-3.8731,0,0,0,0,0,0,-3.8,-3.8024,-3.8205,-3.8213,-3.8096,-3.8192,-3.8208,-3.8251,-3.8331,-3.8341,-3.8283,-3.8282,-3.8406,-3.8419,-3.8432,-3.8534,-3.8474,-3.8481,-3.8485,-3.8726,-3.8729,-3.8732,0,0,0,0,0,0,-3.7995,-3.8016,-3.82,-3.8119,-3.8142,-3.8199,-3.8247,-3.8255,-3.8286,-3.8345,-3.8355,-3.8305,-3.8405,-3.8422,-3.8505,-3.8539,-3.8484,-3.849,-3.8724,-3.8727,-3.873,-3.8742,0,0,0,0,0,0,-3.7987,-3.8014,-3.8048,-3.812,-3.8147,-3.8272,-3.8249,-3.8259,-3.8299,-3.8298,-3.8368,-3.8378,-3.8404,-3.8494,-3.8512,-3.8548,-3.8496,-3.8721,-3.8725,-3.8729,-3.8738,-3.8745,-3.8751,0,0,0,0,0,-3.7979,-3.8045,-3.8049,-3.8071,-3.819,-3.8274,-3.8289,-3.8319,-3.8302,-3.8335,-3.8373,-3.8376,-3.8533,-3.8502,-3.8522,-3.8561,-3.8719,-3.8724,-3.8729,-3.8736,-3.8744,-3.8751,0,0,0,0,0,0,-3.7974,-3.8055,-3.8061,-3.8153,-3.8206,-3.8276,-3.8319,-3.8327,-3.8386,-3.8382,-3.8416,-3.8432,-3.8513,-3.8546,-3.851,-3.8647,-3.8624,-3.8633,-3.8622,-3.863,-3.8636,-3.8625,-3.8502,0,0,0,0,0,-3.7984,-3.8047,-3.8113,-3.8188,-3.8215,-3.8262,-3.83,-3.8319,-3.8375,-3.8397,-3.8441,-3.8495,-3.8556,-3.8595,-3.8655,-3.8744,-3.8759,-3.8781,-3.8787,-3.8792,-3.8799,-3.8847,-3.8857,-3.8749,-3.8749,-3.8749,0,0,-3.8005,-3.8057,-3.8094,-3.8188,-3.8232,-3.8294,-3.8281,-3.8348,-3.8393,-3.8407,-3.8488,-3.8522,-3.8584,-3.867,-3.871,-3.87,-3.8833,-3.8799,-3.8802,-3.8807,-3.8853,-3.8863,-3.8872,-3.8752,-3.8752,-3.8751,0,0,-3.8073,-3.812,-3.8186,-3.8231,-3.8298,-3.833,-3.8346,-3.8415,-3.8438,-3.8521,-3.8531,-3.8586,-3.8692,-3.8735,-3.877,-3.8856,-3.886,-3.8875,-3.8906,-3.8952,-3.8961,-3.8968,-3.8997,-3.9007,-3.8882,-3.8882,-3.8882,0,-3.8089,-3.8185,-3.8219,-3.8285,-3.8326,-3.8343,-3.8409,-3.8451,-3.8533,-3.856,-3.8548,-3.8681,-3.8724,-3.8819,-3.884,-3.8869,-3.8887,-3.8865,-3.8957,-3.8965,-3.8973,-3.9,-3.9011,-3.8883,-3.8883,-3.8883,-3.8883,0,-3.8201,-3.8267,-3.8312,-3.8393,-3.8439,-3.8505,-3.8547,-3.8589,-3.8605,-3.8637,-3.8719,-3.8772,-3.8842,-3.8867,-3.8882,-3.8964,-3.8956,-3.8951,-3.8927,-3.8984,-3.901,-3.9021,-3.8885,-3.8885,-3.8884,-3.8884,0,0,-3.8268,-3.8368,-3.8383,-3.842,-3.8495,-3.8546,-3.8613,-3.8683,-3.8717,-3.8774,-3.8829,-3.8919,-3.8914,-3.8955,-3.8975,-3.9016,-3.9078,-3.9005,-3.9007,-3.9015,-3.9169,-3.9171,-3.9182,-3.9082,-3.9085,-3.9086,-3.9163,0,-3.8343,-3.8463,-3.8495,-3.8596,-3.8656,-3.8674,-3.8731,-3.8783,-3.8815,-3.887,-3.8905,-3.8967,-3.8958,-3.8982,-3.9024,-3.9061,-3.9109,-3.9057,-3.9131,-3.9133,-3.9112,-3.9197,-3.9199,-3.9269,-3.9174,-3.9176,-3.9177,0,-3.8446,-3.8506,-3.8613,-3.868,-3.8707,-3.8758,-3.8824,-3.8878,-3.8936,-3.8957,-3.9003,-3.9019,-3.9088,-3.9063,-3.9157,-3.912,-3.9153,-3.9176,-3.918,-3.9185,-3.9156,-3.9202,-3.9292,-3.9301,-3.9194,-3.9193,-3.9191,0,-3.8481,-3.8589,-3.8666,-3.8697,-3.8778,-3.8814,-3.8849,-3.8906,-3.8946,-3.9004,-3.903,-3.9095,-3.913,-3.9179,-3.9212,-3.9192,-3.9302,-3.9281,-3.9318,-3.9317,-3.9338,-3.9336,-3.9432,-3.9364,-3.9364,-3.9364,-3.9364,0,-3.856,-3.8624,-3.8683,-3.873,-3.8802,-3.8839,-3.8908,-3.8944,-3.8995,-3.9048,-3.9068,-3.9117,-3.916,-3.9215,-3.9241,-3.9313,-3.9329,-3.9346,-3.9352,-3.9343,-3.934,-3.9362,-3.9357,-3.9367,-3.9366,-3.9366,-3.9365,0,-3.8609,-3.8652,-3.8737,-3.8808,-3.8827,-3.8877,-3.8936,-3.8982,-3.9016,-3.9083,-3.9101,-3.9153,-3.9218,-3.9257,-3.934,-3.9358,-3.9437,-3.9442,-3.9417,-3.9419,-3.9453,-3.9448,-3.9565,-3.9581,-3.9505,-3.9505,-3.9506,0,-3.8655,-3.8705,-3.8781,-3.8819,-3.8855,-3.8916,-3.8957,-3.8996,-3.9037,-3.9108,-3.9145,-3.9212,-3.9268,-3.9371,-3.9415,-3.9479,-3.9484,-3.952,-3.9493,-3.9482,-3.9481,-3.9476,-3.948,-3.9523,-3.9524,-3.9525,-3.9525,0,-3.8731,-3.875,-3.8809,-3.8876,-3.8925,-3.8979,-3.9032,-3.9062,-3.9109,-3.9155,-3.9223,-3.9266,-3.9351,-3.9417,-3.9484,-3.9519,-3.9529,-3.9534,-3.9545,-3.9535,-3.9517,-3.9525,-3.9426,-3.953,-3.953,-3.9529,-3.9529,-3.9529,-3.8779,-3.8823,-3.8884,-3.8949,-3.8994,-3.9043,-3.909,-3.913,-3.9187,-3.926,-3.9279,-3.935,-3.9407,-3.9499,-3.9535,-3.959,-3.9584,-3.9601,-3.9605,-3.9608,-3.9608,-3.9511,-3.9603,-3.9603,-3.9603,-3.9602,-3.9602,0,-3.8854,-3.8894,-3.8954,-3.9028,-3.9079,-3.9087,-3.9147,-3.9188,-3.9251,-3.9304,-3.9359,-3.9436,-3.95,-3.955,-3.9615,-3.965,-3.9656,-3.9665,-3.9661,-3.9669,-3.9611,-3.9593,-3.9659,-3.9659,-3.9659,-3.9659,-3.9659,-3.9659,-3.8898,-3.8973,-3.8999,-3.9096,-3.9136,-3.9206,-3.9239,-3.9285,-3.9327,-3.9413,-3.9467,-3.95,-3.9551,-3.9621,-3.9679,-3.9692,-3.9714,-3.9722,-3.9735,-3.9679,-3.9673,-3.9667,-3.965,-3.9727,-3.9727,-3.9789,-3.9789,-3.979]}]]